Weather in Kyrchany

Russia / Kirov Oblast     57°38′36″N   50°09′23″E
temp.,
°C
wind,
m/s
gust,
m/s
humid.,
%
clouds,
%
prec.,
mm/h
press.,
hPa
HPBL,
m
14 june, mon
mon1400:00+15sse359327 0.4 101374
03:00+14sse349556 0.6 101366
06:00+17s3791100 0.8 1014268
09:00+20ssw4681100 0.8 1014600
12:00+23sw68669 0.6 10141470
15:00+23wsw5870100 1.9 10141402
18:00+20wsw3782100 1.6 1014237
21:00+17wsw22890 1.8 101425
15 june, tue
tue1500:00+15w22880 0.0 101411
03:00+15w11870 0.0 101411
06:00+19wsw12814 0.0 1015162
09:00+23sw33653 1.3 1014680
12:00+25wsw33531 0.0 10141665
15:00+25wsw245221 0.0 10131689
18:00+23ssw237432 0.1 101371
21:00+19s358088 0.1 101290
16 june, wed
wed1600:00+17ssw359195 0.3 1012108
03:00+16ssw229222 0.4 101232
06:00+19s238581 0.0 1011182
09:00+22sse3369100 0.0 1010452
12:00+26se245460 0.0 10081059
15:00+24wsw346542 0.5 1004131
18:00+17nnw71295100 7.8 1007449
21:00+16wnw3897100 9.3 1007303
17 june, thu
thu1700:00+14nnw613933 0.1 1009527
03:00+11nnw6149241 0.1 1012457
06:00+13nnw5108615 0.0 1014400
09:00+17nnw69610 0.0 10151353
12:00+19nnw584913 0.0 10162327
15:00+17nnw586279 0.0 1017634
18:00+15n387359 0.1 1018311
21:00+12nw368198 0.1 1019114
18 june, fri
fri1800:00+10nw411865 0.0 1020208
03:00+8nw310945 0.0 1022201
06:00+12nnw597862 0.0 1023354
09:00+16nw68575 0.0 10231121
12:00+18nnw58515 0.0 10231810
15:00+19nnw574842 0.0 10241976
18:00+18nw3570100 0.0 1024147
21:00+14wsw227086 0.0 102410